Location: Villingen
(48.0639°N, 8.4609°E)
Time: 15:22:13
(UTC+01:00)

ISS - Visible Passes

Search period start: 23 March 2017 00:00
Search period end: 02 April 2017 01:00
Orbit: 399 x 409 km, 51.6° (Epoch: 23 March)

Date Brightness Start Highest point End Pass type
(mag) Time Alt. Az. Time Alt. Az. Time Alt. Az.
23 Mar -1.9 04:30:04 20° SSE 04:30:04 20° SSE 04:31:25 10° SSE visible
27 Mar -1.7 21:50:13 10° SW 21:51:11 17° SSW 21:51:11 17° SSW visible
28 Mar -2.7 20:58:20 10° SSW 21:01:04 25° SE 21:01:53 22° ESE visible
28 Mar -1.0 22:34:03 10° WSW 22:34:36 14° WSW 22:34:36 14° WSW visible
29 Mar -4.0 21:41:39 10° WSW 21:44:54 77° SSE 21:45:02 75° SE visible
30 Mar -3.6 20:49:24 10° SW 20:52:32 48° SSE 20:55:15 13° ENE visible
30 Mar -2.1 22:25:50 10° W 22:27:55 33° WNW 22:27:55 33° WNW visible
31 Mar -3.5 21:33:18 10° WSW 21:36:33 66° NNW 21:37:56 31° NE visible
31 Mar -0.6 23:10:11 10° WNW 23:10:36 13° WNW 23:10:36 13° WNW visible
01 Apr -3.9 20:40:50 10° WSW 20:44:06 88° SE 20:47:23 10° ENE visible
01 Apr -2.7 22:17:38 10° WNW 22:20:28 41° NNW 22:20:28 41° NNW visible
